COSMOS 249 DEB, 3757

Orbit data source: Space-Track

COSMOS 249 DEB, 3757 is space debris in LEO originally from a launch on Sun, 20 Oct 1968 UTC launched from the Tyuratam Missile And Space Complex (TTMTR). Debris objects in space refer to the collection of defunct objects orbiting the Earth. Examples of debris include non-operational satellites, rocket bodies, and fragments generated from explosions, collisions, or faulty payload assembly.

Loading next visibility...
Identifier
3757, 1968-091AU
Orbit
LEO
Country
Flag of CISCIS
Related business
Manufacturer
Unknown
Mission
Spacecraft
Bus & Motor
Unknown
Mass
Unknown
Launch date (UTC)
1968-10-20 (58 years ago)
Launch vehicle
Unknown
Launch site
Tyuratam Missile And Space Complex (TTMTR)
Object type
Payload
Rocket body
Debris
Shape & HBR
Unknown shape, 0.1 m
Radar Cross Section
Small (<0.1 m²)

Expand to show TLE details & history
Last TLE update: 13 hours ago

TLE from 13 hours ago
0 COSMOS 249 DEB
1 03757U 68091AU  26126.03517119  .00017172  00000-0  18132-2 0  9995
2 03757  61.9736 348.9123 0368603  86.5027 277.8115 14.50362280827807
Epoch: 2026-05-06T00:50Z
TLE epoch observation values (Epoch: 2026-05-06T00:50:38.790Z)
Latitude
-0.00001°
Longitude
112.34922°
Altitude
700.146 km
Speed
7.52 km/s
True Right ascension
23h 15m 38s
True Declination
0° 00' 00"
Sunlit
Object was in daylight at epoch
Visualization orbit readout
Latitude
Unknown
Longitude
Unknown
Altitude
Unknown
Speed
Unknown
Apparent Right ascension
Unknown
Apparent Declination
Unknown
Sunlit
N/A
Visualization observer readout
Local Sidereal Time
22:15:57
Azimuth
Unknown
Elevation
Unknown
Doppler factor
Unknown
Orbital elements
Apogee altitude
985.187 km
Perigee altitude
461.655 km
Semi-major axis
7,101.558 km
Eccentricity
0.03686
Inclination
61.9736°
RAAN
348.9123°
Arg. of periapsis
86.5027°
True anomaly
273.60424°
Mean anomaly
277.8115°
Eccentric anomaly
275.71004°
Mean motion
3.62671 °/min
Orbital period
99.26 mins
BSTAR
0.0018132
Loading maneuver chart data...
Computing Atmospheric mass density...

Documentation

Showing up to 5 results
|